Location: Soapstone Prairie Natural Area
(40.9437°N, 105.0829°W)
Time: 18:33:42
(UTC-06:00)

ISS - Visible Passes

Search period start: 27 March 2015 00:00
Search period end: 06 April 2015 00:00
Orbit: 396 x 406 km, 51.6° (Epoch: 27 March)

Date Brightness Start Highest point End Pass type
(mag) Time Alt. Az. Time Alt. Az. Time Alt. Az.
27 Mar -0.6 04:35:35 15° N 04:35:46 15° NNE 04:37:49 10° NE visible
27 Mar -2.6 06:09:35 10° NW 06:12:45 52° NNE 06:15:55 10° ESE visible
28 Mar -1.6 05:17:07 15° NNW 05:19:18 31° NNE 05:22:14 10° E visible
29 Mar -0.8 04:26:10 21° NNE 04:26:10 21° NNE 04:28:20 10° ENE visible
29 Mar -3.4 05:59:12 10° WNW 06:02:26 68° SW 06:05:37 10° SE visible
30 Mar -2.9 05:07:59 37° NNW 05:09:01 61° NNE 05:12:13 10° ESE visible
31 Mar -0.6 04:17:26 18° E 04:17:26 18° E 04:18:31 10° E visible
31 Mar -2.4 05:50:04 17° W 05:51:51 28° SW 05:54:39 10° SSE visible
01 Apr -2.1 04:59:47 31° SSE 04:59:47 31° SSE 05:01:39 10° SE visible
02 Apr -1.6 20:41:04 10° S 20:42:30 18° SSE 20:42:30 18° SSE visible
03 Apr -2.3 21:23:03 10° WSW 21:25:19 41° WSW 21:25:19 41° WSW visible
04 Apr -3.2 20:29:36 10° SW 20:32:45 51° SE 20:35:05 17° ENE visible
04 Apr -0.4 22:06:34 10° W 22:07:44 17° WNW 22:07:44 17° WNW visible
05 Apr -1.9 21:12:29 10° W 21:15:34 37° NNW 21:17:09 22° NNE visible
